Погода в Уржаре

Погода в Уржаре : погода сейчас, прогноз погоды и архив. Всё, что Вы хотите узнать о погоде в Уржаре!

Поиск расширенной информации на нашем сайте:

Другие новости

Новости СМИ2

Главная страница сайта

Новости сайта

02.10.2013

Напоминаем, что на нашем новом сайте вы можете получить высокодетализированные прогнозы погоды по пунктам России, СНГ и мира (включающие важные для авиации метеовеличины, такие как направление и скорость ветра, видимость, явления погоды, количество и форма облачности, нижняя и верхняя граница облачности), а также ознакомиться с разнообразными материалами по авиационной метеорологии и подборкой полезных ссылок на эту тему.

Сайт Метеоцентр.Азия посвящён разработке технологий оптимизации авиаметеорологического обслуживания, включая проектирование и перспективное создание нескольких автоматизированных авиаметеорологических систем:
- система выпуска высокодетальных прогностических карт явлений погоды для нижнего воздушного пространства по России и ближнему зарубежью;
- система верификации прогнозов TAF (выпускаемых синоптиками официальных АМСГ РФ и ближнего зарубежья) и AUTOTAF (выпускаемых сайтом Метеоцентр.Азия) - выявление ошибок, онлайн-сопоставление с фактической погодой METAR, автоматическое внесение коррективов в прогнозы при резком отклонении фактической погоды от прогноза, подсчёт оправдываемости прогнозов по элементам и в целом;
- система обработки, анализа и отображения авиаметеорологической информации для применения провайдерами метеорологической информации.

Рекомендуем: Бурение скважин двигатель винтовые забойные двигатели.

Погода в Уржаре - сегодня

Время (UTC), дата Ветер
(°,м/с) 
Видим.   Явления Облачность Т
(°С)
Тd
(°С)
f(%) Тe
(°С)
Pmin
(гПа)
dP
(гПа)
Po
(мм)
O2
(г/м3)
Тmin Tmax R s Состояние
почвы
03 25.06.17 тихо ()   20000 м    6/0 средняя 
[Ac trans]
+23.4 +15.6 62 +35  1007.6  0.7  715  262           
06 25.06.17 тихо ()   20000 м    6/4 600 м кучево-дожд., средняя 
[Cb calv|Ac trans]
+27 +16.2 52 +39  1006.4  -0.5  714  258  +15.6         
09 25.06.17 140 (ЮВ) 20000 м    9/5 600 м кучево-дожд., средняя, верхняя 
[Cb calv|Ac trans|Ci sp]
+26.6 +14.9 49 +36  1005.6  -0.8  714  259           
12 25.06.17 310 (СЗ) 20000 м    9/6 600 м кучево-дожд., верхняя 
[Cb cap|Ci sp]
+25.2 +15.9 56 +37  1006.4  0.5  714  260           
15 25.06.17 тихо ()   20000 м    6/4 600 м кучево-дожд., верхняя 
[Cb cap|Ci sp]
+22 +16.2 70 +34  1008.2  1.2  715  263    +27.3       
18 25.06.17 050 (СВ) н/о  в посл. час гроза{ливн. осадки}  3/3 600 м 
[Sc]
+17.3 +15.3 88 +29  1009.8  0.6  716  268    +27.3       
21 25.06.17 тихо ()   н/о    3/3 600 м 
[Sc]
+15.3 +13.6 90 +23  1010.5  0.2  716  270           
00 26.06.17 тихо ()   20000 м    4/0 верхняя 
[Ci fib]
+16.1 +14.7 91 +26  1010.9  0.6  716  269           
03 26.06.17 тихо ()   20000 м    4/0 верхняя 
[Ci fib]
+23.9 +16.7 64 +37  1009.6  0.2  716  262           
06 26.06.17 тихо ()   20000 м    3/3 600 м верхняя 
[Cu med, cong|Ci fib]
+26.8 +17.8 58 +42  1008.8  -0.2  716  259  +15       
09 26.06.17 320 (СЗ) 20000 м    3/3 600 м 
[Cu med, cong]
+29 +14.6 41 +38  1006.8  -1.6  715  257           
12 26.06.17 160 (Ю) 20000 м    3/3 600 м 
[Cu med, cong]
+30.5 +14.1 37 +39  1005.5  -1  714  256           
15 26.06.17 тихо ()   20000 м    1/0 средняя 
[Ac trans]
+22.7 +16.8 69 +36  1007.2  0.4  714  262    +30.8       
18 26.06.17 тихо ()   н/о    ясно 
+15.4 +13.3 87 +22  1009.1  0.3  715  270    +30.8       
21 26.06.17 тихо ()   н/о    ясно 
+14.2 +12.6 90 +20  1008.7  -0.6  714  271           
00 27.06.17 тихо ()   20000 м    ясно 
+15.5 +14.1 91 +24  1008.6  0.2  714  269           
03 27.06.17 тихо ()   20000 м    ясно 
+26.8 +15.2 49 +37  1006.4  714  259           
06 27.06.17 тихо ()   20000 м    4/3 600 м верхняя 
[Cu hum|Ci fib]
+29.8 +13.4 37 +37  1005.5  -0.4  714  257  +13.9         
09 27.06.17 тихо ()   20000 м    6/4 600 м верхняя 
[Cu hum|Ci fib]
+31.7 +9.3 25 +33  1004.2  -1  713  256           
12 27.06.17 тихо ()   20000 м    4/3 600 м верхняя 
[Cu hum|Ci fib]
+32.1 +12.5 30 +38  1003.6  -0.4  713  255           
15 27.06.17 тихо ()   20000 м    9/6 600 м средняя 
[Sc|Ac trans]
+24 +17 65 +38  1006.7  1.6  714  261    +32.4       
18 27.06.17 тихо ()   н/о    8/4 600 м средняя 
[Sc|Ac trans]
+20.2 +16.6 80 +33  1008.6  1.1  715  265    +32.4       
21 27.06.17 тихо ()   н/о    8/4 600 м средняя 
[Sc|Ac trans]
+20.6 +17.9 85 +36  1009.6  1.1  716  264           
00 28.06.17 230 (ЮЗ) 20000 м    9/8 600 м средняя 
[Sc|Ac und]
+20.8 +17.1 79 +35  1011.8  2.1  717  265           
03 28.06.17 тихо ()   20000 м  {ливн. осадки}  8/6 600 м средняя 
[Sc|Ac und]
+20.2 +17.3 83 +20  1012.8  0.8             
Время (UTC), дата Ветер
(°,м/с) 
Видим.   Явления Облачность Т
(°С)
Тd
(°С)
f(%) Тe
(°С)
Pmin
(гПа)
dP
(гПа)
Po
(мм)
O2
(г/м3)
Тmin Tmax R s Состояние
почвы

Для получения пояснительной информации подведите курсор к названию столбца.

ПОГОДА в Уржаре - архив

Всё, что Вы хотите узнать о погоде в Уржаре - удобно и подробно!

Выберите нужную дату (начиная с 1 января 2015* года) и нажмите кнопку "Найти".
Будут отображены архивные сводки погоды по пункту Уржар, начиная с указанной даты.


Отображать данные в формате CSV (для использования в таблицах Excel)


Внимание! Наш архив погоды предназначен исключительно для личного некоммерческого использования в познавательных целях. Если Вам необходимы официальные справки о состоянии погоды (для производственных, юридических, коммерческих и т.п. целей), обращайтесь в органы Росгидромета.

*Примечание: данная дата относится к архиву по метеостанциям СССР (Россия, СНГ, Балтия).
Архив по метеостанциям Зарубежной Европы и Азии (кроме Китая) хранится 10 дней, по другим регионам земного шара (Китай, Африка, Америка, Австралия, Океания) - 1 день.

Уржар - район местоположения метеостанции


Название, широта, долгота, высота метеостанции:
Уржар 47.1°ш. 81.6°д. 491 м над ур. моря [Казахстан]

Дополнительная информация

В oтличие oт бoльшинства пoгoдных сайтoв мы публикуем пoдрoбную метеoинфoрмацию в детальнoм прoфессиoнальнoм фoрмате.

Характеристики температуры и влажнoсти вoздуха измеряются на высoте 2 м в тени вдали oт зданий и деревьев.
Скoрoсть ветра измеряется на высoте 10 м (на урoвне рoста челoвека скoрoсть ветра ниже в 1.5-2 раза). Если метеoстанция нахoдится в гoрoде или в лесу, тo скoрoсть ветра занижена на 2-4 м/с пo сравнению с oткрытым местoм. Скoрoсть ветра над акватoриями крупных рек и oзёр, а также на вершинах хoлмoв на 2-5 м/с выше, чем в oбычных услoвиях.
Атмoсфернoе давление в разных тoчках местнoсти мoжет значительнo oтличаться oт давления на метеoстанции, в зависимoсти oт услoвий рельефа (при пoдъёме на 10 м давление пoнижается примернo на 1 мм рт.ст.).